Change the Weather History Date:

Saturday, September 28, 2013

  Actual Average Record
Temperature  
Mean Temperature 55 °F -  
Max Temperature 66 °F 67 °F 87 °F (1956)
Min Temperature 44 °F 43 °F 29 °F (1951)
Degree Days  
Heating Degree Days 10    
Growing Degree Days 5 (Base 50)    
Moisture  
Dew Point 53 °F    
Average Humidity 84    
Maximum Humidity 100    
Minimum Humidity 72    
Precipitation  
Precipitation 0.16 in - - ()
Sea Level Pressure  
Sea Level Pressure 29.81 in    
Wind  
Wind Speed 9 mph (SSW)    
Max Wind Speed 21 mph    
Max Gust Speed 32 mph    
Visibility 9 miles    
Events Rain    
Averages and records for this station are not official NWS values.
T = Trace of Precipitation, MM = Missing Value Source: NWS Daily Summary

Daily Weather History Graph

Daily Weather History Graph

Search for Another Location

Airport or City:

Trip Planner

Search our weather history database for the weather conditions in past years. The results will help you decide how hot, cold, wet, or windy it might be!

Date:

Astronomy

Sep. 28, 2013 Rise Set
Actual Time 7:07 AM CDT 6:58 PM CDT
Civil Twilight 6:38 AM CDT 7:27 PM CDT
Nautical Twilight 6:04 AM CDT 8:01 PM CDT
Astronomical Twilight 5:29 AM CDT 8:35 PM CDT
Moon 12:43 AM CDT (9/28) 3:29 PM CDT (9/28)
Length of Visible Light 12h 49m
Length of Day
11h 51m
Waning Crescent, 36% of the Moon is Illuminated
Sep 28
Waning Crescent
Oct 4
New
Oct 11
First Quarter
Oct 18
Full
Oct 26
Last Quarter

Hourly Weather History & Observations

Time (CDT) Temp. Windchill Dew Point Humidity Pressure Visibility Wind Dir Wind Speed Gust Speed Precip Events Conditions
12:12 AM 66.2 °F - 57.2 °F 73% 29.84 in 10.0 mi SE 5.8 mph - N/A   Clear
12:32 AM 66.2 °F - 57.2 °F 73% 29.83 in 10.0 mi SE 6.9 mph - N/A   Clear
12:52 AM 66.2 °F - 57.2 °F 73% 29.82 in 10.0 mi SE 5.8 mph - N/A   Clear
1:12 AM 66.2 °F - 57.2 °F 73% 29.82 in 10.0 mi SSE 8.1 mph - N/A   Clear
1:32 AM 66.2 °F - 57.2 °F 73% 29.81 in 10.0 mi SSE 9.2 mph - N/A   Clear
1:52 AM 66.2 °F - 57.2 °F 73% 29.81 in 10.0 mi SSE 11.5 mph 17.3 mph N/A   Clear
2:12 AM 66.2 °F - 57.2 °F 73% 29.80 in 10.0 mi SSE 11.5 mph 19.6 mph N/A   Clear
2:32 AM 66.2 °F - 57.2 °F 73% 29.80 in 10.0 mi SSE 10.4 mph 19.6 mph N/A   Clear
2:52 AM 66.2 °F - 57.2 °F 73% 29.79 in 10.0 mi SSE 8.1 mph 17.3 mph N/A   Clear
3:12 AM 66.2 °F - 57.2 °F 73% 29.78 in 10.0 mi SSE 9.2 mph - N/A   Clear
3:32 AM 64.4 °F - 57.2 °F 77% 29.78 in 10.0 mi SSE 9.2 mph - N/A   Clear
3:52 AM 64.4 °F - 57.2 °F 77% 29.78 in 10.0 mi SSE 10.4 mph - N/A   Scattered Clouds
4:12 AM 64.4 °F - 57.2 °F 77% 29.78 in 10.0 mi South 10.4 mph - N/A   Scattered Clouds
4:32 AM 66.2 °F - 57.2 °F 73% 29.77 in 10.0 mi SSE 10.4 mph 18.4 mph N/A   Mostly Cloudy
4:52 AM 64.4 °F - 57.2 °F 77% 29.76 in 10.0 mi SSE 10.4 mph 16.1 mph N/A   Mostly Cloudy
5:12 AM 64.4 °F - 57.2 °F 77% 29.75 in 10.0 mi SSE 8.1 mph - N/A   Scattered Clouds
5:32 AM 64.4 °F - 57.2 °F 77% 29.75 in 10.0 mi SSE 8.1 mph - N/A   Scattered Clouds
5:51 AM 62.6 °F - 57.2 °F 82% 29.74 in 10.0 mi SSE 9.2 mph 16.1 mph N/A   Clear
6:12 AM 62.6 °F - 57.2 °F 82% 29.74 in 10.0 mi SSE 10.4 mph - N/A   Scattered Clouds
6:32 AM 64.4 °F - 57.2 °F 77% 29.73 in 10.0 mi SSE 11.5 mph 18.4 mph N/A   Mostly Cloudy
6:51 AM 64.4 °F - 57.2 °F 77% 29.73 in 10.0 mi SSE 10.4 mph 16.1 mph N/A   Scattered Clouds
7:12 AM 64.4 °F - 57.2 °F 77% 29.71 in 10.0 mi SSE 11.5 mph 17.3 mph N/A   Clear
7:32 AM 64.4 °F - 57.2 °F 77% 29.71 in 10.0 mi SSE 11.5 mph 19.6 mph N/A   Mostly Cloudy
7:51 AM 64.4 °F - 57.2 °F 77% 29.71 in 10.0 mi SSE 11.5 mph 20.7 mph N/A   Scattered Clouds
8:12 AM 64.4 °F - 59.0 °F 83% 29.70 in 10.0 mi SSE 11.5 mph 19.6 mph N/A   Scattered Clouds
8:32 AM 64.4 °F - 59.0 °F 83% 29.70 in 10.0 mi SSE 10.4 mph 18.4 mph N/A   Mostly Cloudy
8:52 AM 64.4 °F - 60.8 °F 88% 29.69 in 10.0 mi South 9.2 mph 18.4 mph N/A   Scattered Clouds
9:12 AM 64.4 °F - 60.8 °F 88% 29.69 in 10.0 mi South 9.2 mph 18.4 mph N/A   Mostly Cloudy
9:32 AM 66.2 °F - 60.8 °F 83% 29.68 in 10.0 mi South 13.8 mph 21.9 mph N/A   Mostly Cloudy
9:52 AM 66.2 °F - 60.8 °F 83% 29.66 in 10.0 mi South 11.5 mph 20.7 mph N/A   Mostly Cloudy
10:12 AM 66.2 °F - 60.8 °F 83% 29.66 in 10.0 mi South 11.5 mph 23.0 mph N/A Rain Rain
10:32 AM 64.4 °F - 60.8 °F 88% 29.68 in 7.0 mi South 12.7 mph 23.0 mph 0.01 in Rain Light Rain
10:52 AM 64.4 °F - 62.6 °F 94% 29.67 in 7.0 mi South 12.7 mph 20.7 mph 0.01 in   Light Drizzle
11:12 AM 64.4 °F - 62.6 °F 94% 29.67 in 5.0 mi South 12.7 mph 20.7 mph N/A   Light Drizzle
11:32 AM 64.4 °F - 62.6 °F 94% 29.66 in 7.0 mi South 13.8 mph 21.9 mph N/A Rain Light Rain
11:52 AM 55.4 °F - 53.6 °F 94% 29.72 in 7.0 mi West 20.7 mph 26.5 mph 0.04 in Rain Light Rain
12:12 PM 53.6 °F - 51.8 °F 94% 29.74 in 2.5 mi West 17.3 mph 32.2 mph N/A   Drizzle
12:31 PM 53.6 °F - 51.8 °F 94% 29.75 in 2.5 mi West 12.7 mph 24.2 mph 0.01 in   Heavy Drizzle
12:52 PM 51.8 °F - 51.8 °F 100% 29.75 in 5.0 mi West 12.7 mph - 0.06 in Rain Light Rain
1:12 PM 53.6 °F - 51.8 °F 94% 29.77 in 7.0 mi West 9.2 mph - 0.01 in Rain Light Rain
1:31 PM 53.6 °F - 51.8 °F 94% 29.78 in 7.0 mi West 10.4 mph 16.1 mph 0.03 in Rain Rain
1:52 PM 53.6 °F - 51.8 °F 94% 29.79 in 7.0 mi West 8.1 mph - 0.05 in Rain Rain
2:12 PM 53.6 °F - 51.8 °F 94% 29.79 in 10.0 mi West 6.9 mph - N/A Rain Light Rain
2:31 PM 53.6 °F - 53.6 °F 100% 29.79 in 10.0 mi West 6.9 mph 10.4 mph N/A Rain Light Rain
2:52 PM 55.4 °F - 53.6 °F 94% 29.81 in 10.0 mi West 6.9 mph - N/A   Scattered Clouds
3:12 PM 55.4 °F - 51.8 °F 88% 29.82 in 10.0 mi West 8.1 mph - N/A   Mostly Cloudy
3:31 PM 55.4 °F - 51.8 °F 88% 29.83 in 10.0 mi West 11.5 mph 17.3 mph N/A   Overcast
3:52 PM 55.4 °F - 51.8 °F 88% 29.84 in 10.0 mi West 6.9 mph - N/A   Overcast
4:12 PM 55.4 °F - 51.8 °F 88% 29.83 in 10.0 mi West 9.2 mph - N/A   Overcast
4:31 PM 57.2 °F - 50.0 °F 77% 29.84 in 10.0 mi West 10.4 mph 16.1 mph N/A   Overcast
4:52 PM 55.4 °F - 50.0 °F 82% 29.85 in 10.0 mi West 8.1 mph - N/A   Overcast
5:11 PM 57.2 °F - 48.2 °F 72% 29.86 in 10.0 mi West 9.2 mph - N/A   Overcast
5:32 PM 57.2 °F - 48.2 °F 72% 29.87 in 10.0 mi West 9.2 mph - N/A   Overcast
5:52 PM 55.4 °F - 48.2 °F 77% 29.87 in 10.0 mi West 8.1 mph - N/A   Overcast
6:11 PM 55.4 °F - 48.2 °F 77% 29.88 in 10.0 mi West 8.1 mph 16.1 mph N/A   Overcast
6:32 PM 55.4 °F - 46.4 °F 72% 29.89 in 10.0 mi West 4.6 mph - N/A   Mostly Cloudy
6:52 PM 53.6 °F - 46.4 °F 77% 29.90 in 10.0 mi WSW 4.6 mph - N/A   Scattered Clouds
7:11 PM 53.6 °F - 46.4 °F 77% 29.91 in 10.0 mi WSW 3.5 mph - N/A   Mostly Cloudy
7:32 PM 53.6 °F - 46.4 °F 77% 29.92 in 10.0 mi Calm Calm - N/A   Mostly Cloudy
7:52 PM 50.0 °F - 46.4 °F 87% 29.93 in 10.0 mi Calm Calm - N/A   Scattered Clouds
8:11 PM 50.0 °F - 46.4 °F 87% 29.93 in 10.0 mi WSW 4.6 mph - N/A   Clear
8:32 PM 51.8 °F - 46.4 °F 82% 29.94 in 10.0 mi SW 3.5 mph - N/A   Clear
8:52 PM 50.0 °F - 46.4 °F 87% 29.95 in 10.0 mi SW 3.5 mph - N/A   Clear
9:11 PM 48.2 °F - 46.4 °F 93% 29.95 in 10.0 mi SW 4.6 mph - N/A   Clear
9:32 PM 48.2 °F - 46.4 °F 93% 29.95 in 10.0 mi SSW 4.6 mph - N/A   Clear
9:52 PM 48.2 °F - 44.6 °F 87% 29.95 in 10.0 mi SSW 3.5 mph - N/A   Clear
10:11 PM 46.4 °F 45.2 °F 44.6 °F 93% 29.95 in 10.0 mi SSW 3.5 mph - N/A   Clear
10:32 PM 46.4 °F 44.3 °F 44.6 °F 93% 29.96 in 10.0 mi SSW 4.6 mph - N/A   Clear
10:52 PM 46.4 °F 45.2 °F 44.6 °F 93% 29.96 in 10.0 mi SSW 3.5 mph - N/A   Clear
11:12 PM 46.4 °F - 44.6 °F 93% 29.96 in 10.0 mi Calm Calm - N/A   Clear
11:32 PM 44.6 °F - 42.8 °F 93% 29.96 in 10.0 mi Calm Calm - N/A   Clear
11:52 PM 46.4 °F - 44.6 °F 93% 29.96 in 10.0 mi Calm Calm - N/A   Clear